Peterborough, Ontario

2:55 AM EST on January 16, 2018 (GMT -0500)
Peterborough

Weather History for CYPQ - May, 2013

Change the Weather History Date:

Sunday, May 26, 2013

  Actual Average Record
Temperature  
Mean Temperature 38 °F -  
Max Temperature 62 °F 72 °F 82 °F (2015)
Min Temperature 13 °F 49 °F 13 °F (2013)
Degree Days  
Heating Degree Days 28    
Moisture  
Dew Point 31 °F    
Average Humidity 57    
Maximum Humidity 93    
Minimum Humidity 32    
Precipitation  
Precipitation 0.00 in 0.09 in - ()
Sea Level Pressure  
Sea Level Pressure 30.19 in    
Wind  
Wind Speed 9 mph ()    
Max Wind Speed 20 mph    
Max Gust Speed 26 mph    
Visibility 9.0 miles    
Events      
Averages and records for this station are not official NWS values.
T = Trace of Precipitation, MM = Missing Value Source: Averaged Metar Reports

Daily Weather History Graph

Daily Weather History Graph

Search for Another Location

Airport or City:

Trip Planner

Search our weather history database for the weather conditions in past years. The results will help you decide how hot, cold, wet, or windy it might be!

Date:

Astronomy

May. 26, 2013 Rise Set
Actual Time 5:36 AM EDT 8:45 PM EDT
Civil Twilight 5:01 AM EDT 9:20 PM EDT
Nautical Twilight 4:16 AM EDT 10:05 PM EDT
Astronomical Twilight 3:22 AM EDT 11:00 PM EDT
Moon 10:29 PM EDT (5/26) 7:04 AM EDT (5/26)
Length of Visible Light 16h 18m
Length of Day
15h 08m
Waning Gibbous, 97% of the Moon is Illuminated
May 26
Waning Gibbous
May 31
Last Quarter
Jun 8
New
Jun 16
First Quarter
Jun 23
Full

Hourly Weather History & Observations

Time (EDT) Temp. Windchill Dew Point Humidity Pressure Visibility Wind Dir Wind Speed Gust Speed Precip Events Conditions
12:00 AM 41.0 °F 36.4 °F 35.6 °F 81% 30.20 in 9.0 mi West 6.9 mph - N/A   Clear
1:00 AM 44.6 °F 39.7 °F 35.6 °F 71% 30.19 in 9.0 mi NW 9.2 mph - N/A   Clear
2:00 AM 13 °F - 10 °F 80% 30.18 in - ENE 3.5 mph - -  
2:00 AM 42.8 °F 40.1 °F 33.8 °F 70% 30.17 in 9.0 mi WNW 4.6 mph - N/A   Clear
3:00 AM 41.0 °F 38.0 °F 35.6 °F 81% 30.17 in 9.0 mi WNW 4.6 mph - N/A   Clear
4:00 AM 42.8 °F 38.0 °F 35.6 °F 76% 30.16 in 9.0 mi NNW 8.1 mph - N/A   Clear
5:00 AM 42.8 °F 38.0 °F 33.8 °F 70% 30.17 in 9.0 mi NW 8.1 mph - N/A   Clear
6:00 AM 42.8 °F 39.3 °F 33.8 °F 70% 30.18 in 9.0 mi NW 5.8 mph - N/A   Clear
7:00 AM 44.6 °F 40.7 °F 33.8 °F 66% 30.19 in 9.0 mi NNW 6.9 mph - N/A   Clear
8:00 AM 17 °F - 16 °F 93% 30.19 in - NE 8.1 mph - -  
8:00 AM 48.2 °F - 33.8 °F 58% 30.20 in 9.0 mi NNW 12.7 mph - N/A   Clear
9:00 AM 51.8 °F - 32.0 °F 47% 30.21 in 9.0 mi NNW 12.7 mph 19.6 mph N/A   Clear
10:00 AM 53.6 °F - 35.6 °F 51% 30.21 in 9.0 mi NNW 12.7 mph 26.5 mph N/A   Clear
11:00 AM 57.2 °F - 33.8 °F 41% 30.21 in 9.0 mi NNW 12.7 mph - N/A   Clear
12:00 PM 57.2 °F - 33.8 °F 41% 30.21 in 9.0 mi NNW 15.0 mph 20.7 mph N/A   Clear
1:00 PM 60.8 °F - 32.0 °F 34% 30.20 in 9.0 mi WNW 15.0 mph - N/A   Clear
2:00 PM 22 °F - 16 °F 69% 30.23 in - East 8.1 mph - -  
2:00 PM 60.8 °F - 33.8 °F 36% 30.19 in 9.0 mi WNW 15.0 mph 21.9 mph N/A   Clear
3:00 PM 62.6 °F - 32.0 °F 32% 30.18 in 9.0 mi NW 19.6 mph 26.5 mph N/A   Clear
4:00 PM 62.6 °F - 37.4 °F 39% 30.17 in 9.0 mi WNW 17.3 mph 25.3 mph N/A   Clear
5:00 PM 62.6 °F - 35.6 °F 37% 30.17 in 9.0 mi NW 19.6 mph 26.5 mph N/A   Clear
6:00 PM 62.6 °F - 35.6 °F 37% 30.16 in 9.0 mi WNW 15.0 mph 25.3 mph N/A   Clear
7:00 PM 60.8 °F - 35.6 °F 39% 30.15 in 9.0 mi WNW 13.8 mph - N/A   Clear
8:00 PM 21 °F - 18 °F 84% 30.27 in - East 5.8 mph - -  
8:00 PM 59.0 °F - 35.6 °F 42% 30.16 in 9.0 mi WNW 11.5 mph 17.3 mph N/A   Clear
9:00 PM 53.6 °F - 33.8 °F 47% 30.17 in 9.0 mi WNW 11.5 mph - N/A   Clear
10:00 PM 51.8 °F - 32.0 °F 47% 30.19 in 9.0 mi WNW 10.4 mph 17.3 mph N/A   Clear
11:00 PM 50.0 °F - 32.0 °F 50% 30.20 in 9.0 mi WNW 10.4 mph - N/A   Clear